Retour au catalogue

CZ-3A DEB

ActifHEO
NORAD 35548·DEBRIS·🇨🇳 China

Lancé Feb 2, 2007 depuis Xichang Satellite Launch Center

Loading…

Prochains Passages (prochaines 24 heures)

TLE

VieillissantSource: Space-Track

Époque: Aug 31, 2026, 03:54 UTC

1 35548U 07003G   26243.16253453 -.00000248  00000-0 -53291-2 0  9999
2 35548  25.8528 247.4133 7518899 165.1391 348.5749  1.82984030118841

Suivez CZ-3A DEB en temps réel avec AllMySat

Download on the App Store